Location: Cicognara
(44.9500°N, 10.4667°E)
Time: 09:24:55
(UTC+00:00)

Cosmos 2237 Rocket - Pass Details

Date: 20 June 2021
Orbit: 834 x 850 km, 71.0° (Epoch: 04 August)

Event Time Altitude Azimuth Distance (km) Brightness Sun altitude
Exits shadow 22:23:09 23° 219° (SW) 1,718 3.5 -20.4°
Maximum altitude 22:26:44 68° 298° (WNW) 899 2.4 -20.5°
Drops below altitude 10° 22:32:21 10° 21° (NNE) 2,455 5.4 -20.8°
Sets 22:34:49 0° 24° (NNE) 3,394 6.2 -20.8°
